Regional Weather Roundup
Issued by NWS

Home | Current Version | Previous Version | Text Only | Print | Product List | Glossary On
Versions: 1 2 3 4 5 6 7 8 9 10 11 12 13 14 15 16 17 18 19 20 21 22 23 24 25 26 27 28 29 30 31 32 33 34 35 36 37 38 39 40 41 42 43 44 45 46 47 48 49 50
000
ASUS44 KLUB 192310
RWRLUB
WEST TEXAS WEATHER ROUNDUP
NATIONAL WEATHER SERVICE LUBBOCK TX
600 PM CDT FRI OCT 19 2018

NOTE: "FAIR" INDICATES FEW OR NO CLOUDS BELOW 12,000 FEET WITH NO
SIGNIFICANT WEATHER AND/OR OBSTRUCTIONS TO VISIBILITY.

TXZ004-006>008-010-012-014-016-OKZ002-200000-
TEXAS PANHANDLE/OKLAHOMA PANHANDLE

CITY           SKY/WX    TMP DP  RH WIND       PRES   REMARKS
AMARILLO       SUNNY     73  39  29 N12       30.19S
BORGER         SUNNY     75  40  28 N13       30.17R
CANADIAN       SUNNY     76  46  35 N7        30.13R
DALHART        SUNNY     72  33  24 N17       30.23R
DUMAS          SUNNY     71  36  27 N9        30.21R
GUYMON         LGT RAIN  74  37  26 NW15G21   30.17R
HEREFORD       SUNNY     72  41  32 N12       30.22S
PAMPA          SUNNY     74  42  31 N12       30.18R
PERRYTON       SUNNY     76  37  25 N9        30.14S
$$

TXZ026-029-035-045-048-200000-
SOUTHERN PANHANDLE/SOUTH PLAINS/ROLLING PLAINS

CITY           SKY/WX    TMP DP  RH WIND       PRES   REMARKS
CHILDRESS      MOSUNNY   71  54  54 SW5       30.13F
SEMINOLE       CLOUDY    67  53  61 N6        30.23F
LUBBOCK        MOSUNNY   72  49  44 N3        30.18S
PLAINVIEW      SUNNY     71  41  33 N10       30.17R
SNYDER         MOSUNNY   64  57  77 SW6       30.18S
$$

TXZ052-054-060>062-072-078-127-140-154-169-200000-
PERMIAN BASIN/CONCHO VALLEY/BIG COUNTRY/EDWARDS PLATEAU

CITY           SKY/WX    TMP DP  RH WIND       PRES   REMARKS
ABILENE        CLOUDY    60  58  92 S5        30.15F
BIG SPRING     CLOUDY    62  55  77 SW3       30.21S
BRADY          CLOUDY    59  57  94 NW6       30.18R
BROWNWOOD      CLOUDY    59  59 100 NW3       30.17R
MIDLAND        PTSUNNY   66  56  70 CALM      30.18F
ODESSA         CLOUDY    65  54  67 CALM      30.19F
SAN ANGELO     CLOUDY    60  57  89 NW5       30.18R
SONORA         CLOUDY    61  59  94 N6        30.21R
SWEETWATER     PTSUNNY   63  57  80 SW7       30.19S
WINK           SUNNY     64  53  67 VRB5      30.18S
$$

TXZ055-058-074-075-080-082-200000-
FAR WEST/SOUTHWEST MOUNTAINS/TRANS PECOS

CITY           SKY/WX    TMP DP  RH WIND       PRES   REMARKS
ALPINE         CLOUDY    56  51  85 NE5       30.28S
DRYDEN           N/A     63  57  81 NE7       30.15S
EL PASO        PTSUNNY   69  50  50 N6        30.17F
FORT STOCKTON  CLOUDY    57  51  80 NW6       30.21S
GUADALUPE PASS CLOUDY    54  50  86 NE21      30.25F
MARFA            N/A     64  56  75 NE9       30.23S
PECOS          CLOUDY    60  51  73 CALM      30.20F
PRESIDIO       CLOUDY    68  55  62 SW5       30.15S
$$

TXZ014-016-019-021>030-083-200000
TEXAS TECH WEST TEXAS MESONET/TEXAS PANHANDLE/NORTHERN SOUTH PLAINS

CITY           SKY/WX    TMP DP  RH WIND       PRES   REMARKS
ABERNATHY 5ENE   N/A     71  50  47 N6        30.21S
AMARILLO 9NNE    N/A     73  39  29 N12       30.19S
AMARILLO 7SSE    N/A     72  38  29 N15       30.22R
AMHERST 1NE      N/A     69  44  40 N6        30.22R
BOOTLEG 11WNW    N/A     68  38  33 N13       30.28R
CANADIAN 6E      N/A     75  46  36 N8        30.12S
CAPROCK CYN SP   N/A     73  52  47 E2        30.16S
CHILDRESS 2NNE   N/A     71  53  54 SW3       30.13F
CLARENDON 2WSW   N/A     74  45  36 N9        30.16S
CLAUDE 12SW      N/A     71  47  42 N9        30.20S
DIMMITT 2NE      N/A     67  47  48 N12       30.22S
FLOYDADA 2NNE    N/A     71  48  44 N3        30.18S
FRIONA 2NE       N/A     69  46  43 N9        30.25R
GOODLETT 3W      N/A     69  56  62 W3        30.11F
HART 3N          N/A     69  44  40 N9        30.22R
HEREFORD 2NW     N/A     70  36  28 N12       30.25R
MCLEAN 1E        N/A     72  47  42 N7        30.15R
MEMPHIS 1NE      N/A     71  54  54 S3        30.14S
MULESHOE 2SSW    N/A     70  43  37 N9        30.23R
OLTON 6S         N/A     70  43  37 N8        30.21R
PALO DURO SP     N/A     72  44  35 N7        30.21S
PAMPA 2E         N/A     72  45  37 N10       30.18R
PLAINVIEW 1S     N/A     72  45  37 N6        30.19S
SILVERTON 7ESE   N/A     71  51  49 NW5       30.16S
TULIA 2ENE       N/A     70  46  41 NW9       30.21R
TURKEY 2WSW      N/A     71  52  50 SE3       30.15F
UMBARGER 3NNE    N/A     69  46  43 N10       30.23R
$$

TXZ033>036-039>041-045>048-200000
TEXAS TECH WEST TEXAS MESONET/SOUTH PLAINS

CITY           SKY/WX    TMP DP  RH WIND       PRES   REMARKS
AIKEN 3WSW       N/A     71  47  41 N8        30.20S
ANDREWS 2NE      N/A     68  53  59 NW2       30.22R
ANTON 6SSW       N/A     70  51  51 N7        30.20S
BROWNFIELD 2S    N/A     68  52  55 NW1       30.21S
DENVR CTY 7WNW   N/A     69  49  50 N6        30.22S
GAIL 2ESE        N/A     68  55  63 NW7       30.18R
LAMESA 2SE       N/A     67  55  65 CALM      30.20S
LUBBOCK 3WNW     N/A     70  49  47 N1        30.21R
MORTON 1ENE      N/A     71  41  33 N9        30.22R
ODONNELL 1N      N/A     66  52  59 NW3       30.20S
PLAINS 3N        N/A     68  50  52 NE7       30.22S
RALLS 1SE        N/A     69  51  52 W2        30.20S
REESE CENTER     N/A     69  49  48 NE6       30.21S
SEAGRAVES 1SW    N/A     67  53  62 E2        30.21S
SEMINOLE 2NNE    N/A     66  51  57 N3        30.21S
SLATON 2NE       N/A     67  52  56 NW6       30.20S
SNYDER 3E        N/A     64  57  78 SW6       30.17S
SUNDOWN 8SW      N/A     69  46  44 NE7       30.22R
TAHOKA 3NNE      N/A     66  52  61 NW2       30.20S
WOLFFORTH 6SSW   N/A     67  53  59 N2        30.21S
$$

TXZ031-032-036>038-042>044-200000-
TEXAS TECH WEST TEXAS MESONET/ROLLING PLAINS

CITY           SKY/WX    TMP DP  RH WIND       PRES   REMARKS
ASPERMONT 3NE    N/A     66  58  75 SW3       30.15F
FLUVANNA 3WNW    N/A     66  57  72 SW6       30.18S
GRAHAM 5SSW      N/A     66  54  64 W3        30.18F
GUTHRIE 10WSW    N/A     68  57  68 S5        30.13S
HASKELL 1NW      N/A     62  56  79 SW6       30.15S
JAYTON 1SSE      N/A     67  57  69 S3        30.14F
KNOX CITY 3NW    N/A     65  58  77 S6        30.14S
LK A HENRY 1NW   N/A     68  58  70 W3        30.17S
NORTHFIELD 1S    N/A     73  48  40 SW3       30.14S
ODELL 4ENE       N/A     64  59  84 S7        30.13F
PADUCAH 10SW     N/A     71  55  58 N2        30.14S
POST 1NE         N/A     69  53  56 NW2       30.17S
RRING SPRGS 3N   N/A     69  55  60 W5        30.17R
SEYMOUR 3NW      N/A     63  57  81 S3        30.14S
SPUR 1W          N/A     69  54  57 W5        30.16R
WEINERT 2NNE     N/A     64  57  79 SW6       30.14F
WHITE RVR 6NE    N/A     70  51  52 NW6       30.18R
$$

TXZ052-054-060>062-072-078-127-140-154-169-200000-
TEXAS TECH WEST TEXAS MESONET/PERMIAN BASIN/
CONCHO VALLEY/BIG COUNTRY/EDWARDS PLATEAU

CITY           SKY/WX    TMP DP  RH WIND       PRES   REMARKS
COYANOSA 2N      N/A     62  53  70 NW7       30.21F
JUNCTION 1SSW    N/A     63  60  91 N2        30.17F
MERTZON 3NNE     N/A     60  57  89 NW2       30.20S
SAN ANGELO 7NW   N/A     60  56  86 NW2       30.19R
STRLNG CT 4WSW   N/A     63  56  79 NW1       30.20S
ST LAWRNCE 5SW   N/A     63  55  73 NW2       30.20S
SWEETWATR 11SW   N/A     61  57  88 SW6       30.19S
WALL 1E          N/A     60  57  91 NW2       30.20R
$$

TXZ055-058-074-075-080-082-200000-
TEXAS TECH WEST TEXAS MESONET/FAR WEST/SOUTHWEST MOUNTAINS/TRANS PECOS

CITY           SKY/WX    TMP DP  RH WIND       PRES   REMARKS
PRSMN GAP BBNP   N/A     64  55  72 NE12      30.18R
GUADLPE MTN NP   N/A     53  52  97 NE6       30.29S
$$



USA.gov is the U.S. government's official web portal to all federal, state and local government web resources and services.